Погода в Стрижавке

Украина / Винницкая область     49°18′44″N   28°28′50″E
темп.,
°C
ветер,
м/с
пор.,
м/с
влажн.,
%
обл.,
%
осадки,
мм/ч
давл.,
гПа
погр.,
м
13 апреля, вт
вт1300:00+8юв347791 0.0 1020113
03:00+6ююв118299 0.0 102032
06:00+6юв228311 0.0 101918
09:00+9вюв2374100 0.0 1019207
12:00+14вюв215496 0.0 1018949
15:00+15в2248100 0.0 10161459
18:00+11вюв4672100 0.0 1016336
21:00+10вюв3873100 0.0 1016288
14 апреля, ср
ср1400:00+10ююв41072100 0.0 1015372
03:00+9ююв51076100 0.1 1015416
06:00+7юв4886100 0.8 1014276
09:00+7юв4883100 1.1 1014344
12:00+11ююв5761100 0.3 10141047
15:00+13ююв5653100 0.3 10121739
18:00+12ююв4652100 0.1 10121406
21:00+10ююв3768100 0.2 1013440
15 апреля, чт
чт1500:00+8юв2374100 0.0 1013137
03:00+8в1279100 0.3 1012125
06:00+8ссв2592100 1.5 1011335
09:00+8св4790100 2.6 1012463
12:00+8всв3586100 0.3 1012581
15:00+8св3484100 0.4 1012495
18:00+8сз2285100 0.0 1012182
21:00+6зсз5892100 0.4 1013261
16 апреля, пт
пт1600:00+5сз5993100 1.1 1013341
03:00+4зсз5993100 2.4 1012396
06:00+3зсз5994100 1.8 1011414
09:00+3зсз4893100 3.6 1012442
12:00+3зсз5893100 2.3 1013491
15:00+4з5788100 2.4 1013564
18:00+3з5892100 0.0 1014528
21:00+3з4895100 0.0 1015414
17 апреля, сб
сб1700:00+3з4993100 0.1 1016415
03:00+3з4894100 0.8 1016408
06:00+3з4796100 0.5 1017363
09:00+5з3493100 0.0 1017323
12:00+4зюз3392100 0.0 1019404
15:00+4юз2391100 0.3 1020403
18:00+5юз2490100 0.0 1021457
21:00+5ю2493100 0.1 1021186